This demonstration page uses our WeatherBlox Daily Observations layout. Learn more.

Left ArrowRight Arrow

38.80484, -77.04692

Hourly Observations for August 24, 2019

Temp ( °F °C ) Dew Point ( °F °C ) Humidity (%) Winds ( mph kmh ) Pressure ( in mb ) Visibility ( mi km ) Precip ( " mm )
12:52 am 00:52 Mostly Cloudy 68 20 62 16.7 81 81 NNW 8 13 30.09 1019 10 16 0.00 0.00
1:52 am 01:52 Mostly Cloudy 68 20 61 16.1 78 78 N 9 15 30.09 1019 10 16 0.00 0.00
2:52 am 02:52 Mostly Clear 66 18.9 59 15 78 78 N 7 11 30.10 1019 10 16 0.00 0.00
3:52 am 03:52 Mostly Clear 65 18.3 59 15 81 81 N 6 9 30.11 1020 10 16 0.00 0.00
4:52 am 04:52 Mostly Clear 66 18.9 57 13.9 73 73 NNE 9 15 30.12 1020 10 16 0.00 0.00
5:52 am 05:52 Mostly Clear 65 18.3 56 13.3 73 73 N 12 19 30.14 1021 10 16 0.00 0.00
6:52 am 06:52 Mostly Sunny 65 18.3 55 12.8 70 70 N 12 19 30.16 1021 10 16 0.00 0.00
7:52 am 07:52 Mostly Sunny 67 19.4 56 13.3 68 68 N 8 13 30.18 1022 10 16 0.00 0.00
8:52 am 08:52 Mostly Sunny 69 20.6 56 13.3 63 63 NNE 9 15 30.18 1022 10 16 0.00 0.00
9:52 am 09:52 Mostly Sunny 72 22.2 56 13.3 57 57 NNE 8 13 30.19 1022 10 16 0.00 0.00
10:52 am 10:52 Partly Cloudy 75 23.9 56 13.3 52 52 NNE 9 15 30.19 1022 10 16 0.00 0.00
11:52 am 11:52 Partly Cloudy 77 25 54 12.2 45 45 NNE 9 15 30.18 1022 10 16 0.00 0.00
12:52 pm 12:52 Mostly Cloudy 77 25 53 11.7 43 43 NE 9 15 30.17 1022 10 16 0.00 0.00
1:52 pm 13:52 Mostly Cloudy 80 26.7 52 11.1 38 38 ENE 7 11 30.17 1022 10 16 0.00 0.00
2:52 pm 14:52 Mostly Cloudy 80 26.7 52 11.1 38 38 ENE 7 11 30.16 1021 10 16 0.00 0.00
3:52 pm 15:52 Partly Cloudy 78 25.6 51 10.6 39 39 Calm 30.15 1021 10 16 0.00 0.00
4:52 pm 16:52 Mostly Cloudy 77 25 51 10.6 40 40 ESE 5 7 30.16 1021 10 16 0.00 0.00
5:52 pm 17:52 Mostly Cloudy 77 25 53 11.7 43 43 ENE 12 19 30.15 1021 10 16 0.00 0.00
6:52 pm 18:52 Mostly Cloudy 75 23.9 54 12.2 48 48 NE 13 20 30.16 1021 10 16 0.00 0.00
7:52 pm 19:52 Mostly Cloudy 74 23.3 53 11.7 48 48 NE 10 17 30.17 1022 10 16 0.00 0.00
8:52 pm 20:52 Mostly Cloudy 73 22.8 55 12.8 53 53 NNE 10 17 30.19 1022 10 16 0.00 0.00
9:52 pm 21:52 Partly Cloudy 71 21.7 57 13.9 61 61 ENE 7 11 30.20 1023 10 16 0.00 0.00
10:52 pm 22:52 Partly Cloudy 71 21.7 57 13.9 61 61 ENE 7 11 30.21 1023 10 16 0.00 0.00
11:52 pm 23:52 Mostly Cloudy 70 21.1 57 13.9 64 64 NE 6 9 30.21 1023 10 16 0.00 0.00

Powered by AerisWeather